Weather reports worldwide

Advertisment
Alicante, Spain (8359): temperature & dewpoint: 04.04.2020 21:00:00 - 10.04.2020 21:00:00 (CEST)Alicante, Spain (8359): wind speed: 04.04.2020 21:00:00 - 10.04.2020 21:00:00 (CEST)Alicante, Spain (8359): wind direction: 04.04.2020 21:00:00 - 10.04.2020 21:00:00 (CEST)Alicante, Spain (8359): reduced air pressure: 04.04.2020 21:00:00 - 10.04.2020 21:00:00 (CEST)Alicante, Spain (8359): visibility: 04.04.2020 21:00:00 - 10.04.2020 21:00:00 (CEST)Alicante, Spain (8359): precipitation: 04.04.2020 21:00:00 - 10.04.2020 21:00:00 (CEST)
Date & Time tt [°C] td [°C] ff [km/h] ff [kn] dd ppp [hPa] vv [km] rr [mm]
10.04.2020 21:00:00 - - - - - - - -
10.04.2020 20:00:00 16,8 8,2 8 4 E 1022,4 20 -
10.04.2020 19:00:00 17,8 6,3 8 4 ENE 1022,2 20 0,0
10.04.2020 18:00:00 18,1 7,8 9 5 E 1022,0 20 0,0
10.04.2020 17:00:00 19,0 6,5 9 5 E 1021,7 20 -
10.04.2020 16:00:00 19,1 5,2 13 7 ENE 1022,0 20 0,0
10.04.2020 15:00:00 19,5 3,6 9 5 ESE 1022,3 20 0,0
10.04.2020 14:00:00 19,3 6,7 11 6 E 1022,6 20 -
10.04.2020 13:00:00 19,0 4,3 9 5 SE 1022,9 20 0,0
10.04.2020 12:00:00 20,1 2,9 11 6 E 1023,0 20 0,0
10.04.2020 11:00:00 18,5 2,7 8 4 E 1022,8 20 -
10.04.2020 10:00:00 15,4 5,6 2 1 W 1022,4 20 0,0
10.04.2020 09:00:00 13,5 4,6 4 2 NNW 1022,1 20 0,0
10.04.2020 08:00:00 12,9 4,3 4 2 N 1021,6 20 -
10.04.2020 07:00:00 13,0 3,9 5 3 N 1021,2 20 0,0
10.04.2020 06:00:00 12,9 5,3 2 1 NW 1021,1 20 0,0
10.04.2020 05:00:00 13,5 4,6 5 3 N 1021,3 20 -
10.04.2020 04:00:00 14,1 4,7 4 2 N 1021,5 20 0,0
10.04.2020 03:00:00 14,6 3,7 4 2 NNE 1021,9 20 0,0
10.04.2020 02:00:00 14,7 2,9 4 2 NNE 1022,1 20 -
10.04.2020 01:00:00 15,0 3,5 4 2 NNE 1022,3 12 0,0
10.04.2020 00:00:00 15,6 2,4 4 2 NNE 1022,3 20 0,0
09.04.2020 23:00:00 16,1 2,8 4 2 N 1022,3 20 -
09.04.2020 22:00:00 16,3 5,0 4 2 NNE 1021,9 20 0,0
09.04.2020 21:00:00 16,7 4,4 9 5 ENE 1021,2 20 0,0
09.04.2020 20:00:00 17,2 4,5 9 5 ENE 1021,2 20 -
09.04.2020 19:00:00 17,8 5,4 13 7 ENE 1021,0 20 0,0
09.04.2020 18:00:00 17,9 6,4 13 7 ENE 1021,0 20 0,0
09.04.2020 17:00:00 18,8 7,2 15 8 ENE 1021,1 20 -
09.04.2020 16:00:00 19,6 5,3 15 8 E 1021,1 20 0,0
09.04.2020 15:00:00 19,6 3,7 15 8 E 1021,6 20 0,0
09.04.2020 14:00:00 20,1 2,0 15 8 ENE 1021,7 20 -
09.04.2020 13:00:00 18,5 3,5 15 8 ENE 1022,2 20 0,0
09.04.2020 12:00:00 18,1 6,0 9 5 ENE 1022,6 20 0,0
09.04.2020 11:00:00 16,4 5,6 4 2 NE 1022,7 20 -
09.04.2020 10:00:00 13,9 8,1 4 2 W 1022,4 20 0,0
09.04.2020 09:00:00 11,9 7,4 2 1 WNW 1022,0 19 0,0
09.04.2020 08:00:00 11,1 7,2 2 1 NW 1021,5 20 -
09.04.2020 07:00:00 - - - - - - - -
09.04.2020 06:00:00 - - - - - - - -
09.04.2020 05:00:00 - - - - - - - -
09.04.2020 04:00:00 - - - - - - - -
09.04.2020 03:00:00 - - - - - - - -
09.04.2020 02:00:00 - - - - - - - -
09.04.2020 01:00:00 - - - - - - - -
09.04.2020 00:00:00 - - - - - - - -
08.04.2020 23:00:00 - - - - - - - -
08.04.2020 22:00:00 - - - - - - - -
08.04.2020 21:00:00 - - - - - - - -
08.04.2020 20:00:00 15,6 11,0 11 6 ENE 1022,8 20 -
08.04.2020 19:00:00 17,0 9,9 11 6 E 1022,5 20 0,0
08.04.2020 18:00:00 17,7 10,3 11 6 ENE 1022,5 20 0,0
08.04.2020 17:00:00 17,2 9,9 11 6 E 1022,9 20 -
08.04.2020 16:00:00 18,2 9,5 13 7 E 1023,6 20 0,0
08.04.2020 15:00:00 18,8 8,7 11 6 ESE 1024,2 20 0,0
08.04.2020 14:00:00 18,9 7,0 11 6 ESE 1024,6 25 -
08.04.2020 13:00:00 18,5 4,6 9 5 ENE 1025,1 20 0,0
08.04.2020 12:00:00 17,9 8,2 11 6 ENE 1025,4 20 0,0
08.04.2020 11:00:00 17,3 7,3 9 5 E 1025,5 25 -
08.04.2020 10:00:00 15,5 6,5 5 3 NNE 1025,5 20 0,0
08.04.2020 09:00:00 11,4 7,1 5 3 N 1025,6 20 0,0
08.04.2020 08:00:00 8,9 6,9 4 2 NW 1025,6 18 -
08.04.2020 07:00:00 9,1 6,7 4 2 NNW 1025,3 19 0,0
08.04.2020 06:00:00 9,8 7,2 4 2 NNW 1025,4 20 0,0
08.04.2020 05:00:00 10,3 7,0 5 3 N 1025,6 20 -
08.04.2020 04:00:00 10,2 6,9 2 1 NW 1026,0 20 0,0
08.04.2020 03:00:00 10,9 6,8 4 2 NNW 1026,3 20 0,0
08.04.2020 02:00:00 12,2 8,7 4 2 NW 1026,9 20 -
08.04.2020 01:00:00 13,1 9,2 5 3 N 1027,1 20 0,0
08.04.2020 00:00:00 14,0 9,8 5 3 NNE 1026,8 20 0,0
07.04.2020 23:00:00 14,5 11,3 4 2 NE 1026,9 20 -
07.04.2020 22:00:00 14,6 11,2 8 4 ENE 1026,5 20 0,0
07.04.2020 21:00:00 14,9 11,3 9 5 ENE 1025,9 20 0,0
07.04.2020 20:00:00 15,5 11,1 11 6 E 1025,2 20 -
07.04.2020 19:00:00 16,9 11,4 11 6 ENE 1024,9 20 0,0
07.04.2020 18:00:00 17,8 9,9 13 7 ENE 1024,9 20 0,0
07.04.2020 17:00:00 18,0 9,3 13 7 ENE 1025,2 20 -
07.04.2020 16:00:00 18,8 10,1 11 6 ESE 1025,4 20 0,0
07.04.2020 15:00:00 18,6 9,9 11 6 ESE 1025,9 20 0,0
07.04.2020 14:00:00 18,8 10,1 13 7 SE 1026,1 20 -
07.04.2020 13:00:00 18,2 9,3 11 6 E 1026,3 20 0,0
07.04.2020 12:00:00 17,9 9,8 11 6 E 1026,6 20 0,0
07.04.2020 11:00:00 17,1 9,8 9 5 ENE 1026,5 20 -
07.04.2020 10:00:00 14,8 9,6 5 3 NNE 1026,1 20 0,0
07.04.2020 09:00:00 11,4 9,1 4 2 NNW 1026,2 19 0,0
07.04.2020 08:00:00 10,5 8,6 4 2 NNW 1025,8 20 -
07.04.2020 07:00:00 10,8 8,7 2 1 WNW 1025,3 20 0,0
07.04.2020 06:00:00 11,2 8,8 4 2 NNW 1025,2 20 0,0
07.04.2020 05:00:00 11,6 9,5 8 4 NNE 1024,9 20 -
07.04.2020 04:00:00 12,0 10,2 4 2 N 1025,2 19 0,0
07.04.2020 03:00:00 12,6 10,5 5 3 N 1025,4 20 0,0
07.04.2020 02:00:00 13,2 10,9 5 3 NE 1025,3 20 -
07.04.2020 01:00:00 13,6 11,1 4 2 NNE 1025,4 20 0,0
07.04.2020 00:00:00 13,7 11,2 4 2 N 1025,3 20 0,0
06.04.2020 23:00:00 14,1 11,3 4 2 NNE 1025,1 20 -
06.04.2020 22:00:00 14,5 11,3 4 2 NE 1025,1 20 0,0
06.04.2020 21:00:00 15,0 11,2 5 3 E 1024,4 20 0,0
06.04.2020 20:00:00 15,4 11,0 8 4 E 1023,9 20 -
06.04.2020 19:00:00 16,5 11,0 8 4 ESE 1023,7 20 0,0
06.04.2020 18:00:00 17,4 11,2 11 6 SSE 1023,5 20 0,0
06.04.2020 17:00:00 17,8 10,7 9 5 ESE 1023,2 20 -
06.04.2020 16:00:00 17,6 10,7 9 5 SE 1023,7 20 0,0
06.04.2020 15:00:00 18,4 10,2 9 5 SE 1023,5 20 0,0
06.04.2020 14:00:00 18,1 10,5 11 6 SE 1023,9 20 -
06.04.2020 13:00:00 18,4 10,7 9 5 SE 1024,1 20 0,0
06.04.2020 12:00:00 18,5 10,8 5 3 S 1024,1 20 0,0
06.04.2020 11:00:00 16,7 10,3 4 2 NE 1023,6 20 -
06.04.2020 10:00:00 14,4 10,0 4 2 NNE 1023,5 20 0,0
06.04.2020 09:00:00 11,8 9,7 2 1 NNW 1023,1 19 0,0
06.04.2020 08:00:00 10,1 8,5 2 1 NNW 1022,2 18 -
06.04.2020 07:00:00 10,6 8,9 2 1 WNW 1021,7 18 0,0
06.04.2020 06:00:00 11,4 9,3 2 1 NW 1021,2 19 0,0
06.04.2020 05:00:00 11,9 9,5 2 1 WNW 1021,4 20 -
06.04.2020 04:00:00 12,3 9,7 2 1 WNW 1021,5 20 0,0
06.04.2020 03:00:00 12,2 9,6 2 1 WNW 1021,6 20 0,0
06.04.2020 02:00:00 11,9 9,5 4 2 NE 1021,5 20 -
06.04.2020 01:00:00 12,4 9,4 2 1 NNW 1021,9 20 0,0
06.04.2020 00:00:00 13,1 9,5 4 2 N 1021,4 20 0,0
05.04.2020 23:00:00 13,9 9,5 2 1 E 1021,6 20 -
05.04.2020 22:00:00 14,3 9,3 5 3 E 1020,8 20 0,0
05.04.2020 21:00:00 14,2 8,8 8 4 E 1020,3 20 0,0
05.04.2020 20:00:00 14,8 9,4 9 5 ENE 1019,7 20 -
05.04.2020 19:00:00 15,8 8,8 9 5 ENE 1019,6 20 0,0
05.04.2020 18:00:00 16,7 9,1 11 6 E 1019,6 20 0,0
05.04.2020 17:00:00 16,5 8,7 11 6 E 1019,8 20 -
05.04.2020 16:00:00 16,8 9,5 9 5 SE 1020,5 20 0,0
05.04.2020 15:00:00 17,5 7,5 9 5 ESE 1020,9 20 0,0
05.04.2020 14:00:00 16,9 8,6 13 7 E 1021,2 20 -
05.04.2020 13:00:00 17,4 8,5 11 6 ESE 1021,5 20 0,0
05.04.2020 12:00:00 16,9 8,6 13 7 E 1021,5 20 0,0
05.04.2020 11:00:00 16,3 8,8 13 7 E 1021,5 20 -
05.04.2020 10:00:00 14,9 7,0 8 4 NE 1020,9 20 0,0
05.04.2020 09:00:00 11,3 6,6 4 2 N 1021,1 20 0,0
05.04.2020 08:00:00 9,4 6,5 2 1 WNW 1020,5 20 -
05.04.2020 07:00:00 10,6 6,7 4 2 N 1019,9 20 0,0
05.04.2020 06:00:00 11,3 7,0 4 2 N 1019,6 20 0,0
05.04.2020 05:00:00 12,0 7,7 2 1 N 1019,7 20 -
05.04.2020 04:00:00 12,1 7,6 4 2 N 1020,1 20 0,0
05.04.2020 03:00:00 12,1 7,4 5 3 N 1020,4 20 0,0
05.04.2020 02:00:00 12,1 7,2 4 2 NNE 1020,7 20 -
05.04.2020 01:00:00 12,1 8,2 5 3 NNE 1020,5 20 0,0
05.04.2020 00:00:00 12,4 9,0 8 4 NNE 1020,4 20 0,0
04.04.2020 23:00:00 12,9 10,3 5 3 NNE 1020,8 20 -
04.04.2020 22:00:00 13,8 10,2 5 3 NNE 1020,9 20 0,0
04.04.2020 21:00:00 14,3 10,3 4 2 ENE 1020,3 20 0,0

tt = temperature
td = dewpoint
ff = wind speed
dd = wind direction
ppp = reduced air pressure
vv = visibility
rr = precipitation

Next stations